TimeCST,TemperatureF,Dew PointF,Humidity,Sea Level PressureIn,VisibilityMPH,Wind Direction,Wind SpeedMPH,Gust SpeedMPH,PrecipitationIn,Events,Conditions,WindDirDegrees,DateUTC
12:15 AM,-7.6,-11.2,84,30.02,10.0,Calm,Calm,-,N/A,,Clear,0,2013-02-06 06:15:00
12:35 AM,-5.8,-9.4,84,30.03,10.0,Calm,Calm,-,N/A,,Clear,0,2013-02-06 06:35:00
1:15 AM,-7.6,-11.2,84,30.03,10.0,Calm,Calm,-,N/A,,Clear,0,2013-02-06 07:15:00
1:35 AM,-9.4,-13.0,84,30.04,10.0,Calm,Calm,-,N/A,,Scattered Clouds,0,2013-02-06 07:35:00
1:55 AM,-7.6,-11.2,84,30.04,10.0,Calm,Calm,-,N/A,,Overcast,0,2013-02-06 07:55:00
2:15 AM,-7.6,-11.2,84,30.05,10.0,Calm,Calm,-,N/A,,Mostly Cloudy,0,2013-02-06 08:15:00
2:35 AM,-7.6,-11.2,84,30.05,10.0,Calm,Calm,-,N/A,,Mostly Cloudy,0,2013-02-06 08:35:00
2:55 AM,-7.6,-9.4,92,30.04,10.0,Calm,Calm,-,N/A,,Mostly Cloudy,0,2013-02-06 08:55:00
3:15 AM,-7.6,-11.2,84,30.04,10.0,Calm,Calm,-,N/A,,Scattered Clouds,0,2013-02-06 09:15:00
3:35 AM,-7.6,-11.2,84,30.04,10.0,Calm,Calm,-,N/A,,Clear,0,2013-02-06 09:35:00
3:55 AM,-7.6,-11.2,84,30.05,10.0,Calm,Calm,-,N/A,,Scattered Clouds,0,2013-02-06 09:55:00
4:15 AM,-7.6,-11.2,84,30.05,10.0,Calm,Calm,-,N/A,,Mostly Cloudy,0,2013-02-06 10:15:00
4:35 AM,-5.8,-9.4,84,30.05,10.0,Calm,Calm,-,N/A,,Overcast,0,2013-02-06 10:35:00
4:55 AM,-5.8,-9.4,84,30.05,10.0,Calm,Calm,-,N/A,,Mostly Cloudy,0,2013-02-06 10:55:00
5:15 AM,-7.6,-9.4,92,30.05,10.0,Calm,Calm,-,N/A,,Scattered Clouds,0,2013-02-06 11:15:00
5:35 AM,-7.6,-11.2,84,30.06,10.0,Calm,Calm,-,N/A,,Clear,0,2013-02-06 11:35:00
5:55 AM,-9.4,-13.0,84,30.05,10.0,Calm,Calm,-,N/A,,Clear,0,2013-02-06 11:55:00
6:15 AM,-9.4,-11.2,92,30.05,10.0,Calm,Calm,-,N/A,,Clear,0,2013-02-06 12:15:00
6:35 AM,-9.4,-13.0,84,30.06,10.0,Calm,Calm,-,N/A,,Clear,0,2013-02-06 12:35:00
6:55 AM,-9.4,-13.0,84,30.06,10.0,Calm,Calm,-,N/A,,Clear,0,2013-02-06 12:55:00
7:15 AM,-9.4,-14.8,77,30.07,10.0,Calm,Calm,-,N/A,,Clear,0,2013-02-06 13:15:00
7:35 AM,-9.4,-13.0,84,30.06,10.0,Calm,Calm,-,N/A,,Clear,0,2013-02-06 13:35:00
7:55 AM,-9.4,-11.2,92,30.08,10.0,Calm,Calm,-,N/A,,Clear,0,2013-02-06 13:55:00
8:15 AM,-5.8,-9.4,84,30.09,3.0,Calm,Calm,-,N/A,,Clear,0,2013-02-06 14:15:00
8:35 AM,-4.0,-7.6,85,30.09,10.0,Calm,Calm,-,N/A,,Clear,0,2013-02-06 14:35:00
8:55 AM,-0.4,-2.2,92,30.08,10.0,Calm,Calm,-,N/A,,Scattered Clouds,0,2013-02-06 14:55:00
9:15 AM,6.8,3.2,85,30.09,10.0,Calm,Calm,-,N/A,,Scattered Clouds,0,2013-02-06 15:15:00
9:35 AM,10.4,8.6,92,30.09,10.0,Calm,Calm,-,N/A,,Scattered Clouds,0,2013-02-06 15:35:00
9:55 AM,14.0,12.2,93,30.09,10.0,Calm,Calm,-,N/A,,Scattered Clouds,0,2013-02-06 15:55:00
10:15 AM,15.8,14.0,93,30.09,10.0,Calm,Calm,-,N/A,,Mostly Cloudy,0,2013-02-06 16:15:00
10:35 AM,17.6,15.8,93,30.10,10.0,SSW,6.9,-,N/A,,Overcast,200,2013-02-06 16:35:00
10:55 AM,19.4,12.2,74,30.09,10.0,SSW,5.8,-,N/A,,Mostly Cloudy,200,2013-02-06 16:55:00
11:15 AM,21.2,12.2,68,30.09,10.0,SSW,8.1,-,N/A,,Mostly Cloudy,200,2013-02-06 17:15:00
11:35 AM,21.2,14.0,74,30.08,10.0,SSW,6.9,-,N/A,,Mostly Cloudy,200,2013-02-06 17:35:00
11:55 AM,23.0,12.2,63,30.07,10.0,SSW,8.1,-,N/A,,Mostly Cloudy,200,2013-02-06 17:55:00
12:15 PM,24.8,14.0,64,30.07,10.0,South,6.9,-,N/A,,Overcast,180,2013-02-06 18:15:00
12:35 PM,23.0,15.8,74,30.08,3.0,SSW,5.8,-,N/A,Snow,Light Snow,200,2013-02-06 18:35:00
12:55 PM,23.0,17.6,80,30.08,1.2,SSW,4.6,-,N/A,Snow,Light Snow,200,2013-02-06 18:55:00
1:15 PM,23.0,19.4,86,30.07,1.0,South,3.5,-,N/A,Snow,Light Snow,170,2013-02-06 19:15:00
1:35 PM,23.0,19.4,86,30.06,0.5,South,4.6,-,N/A,Snow,Light Snow,170,2013-02-06 19:35:00
1:55 PM,21.2,19.4,93,30.06,0.8,SE,4.6,-,N/A,Snow,Light Snow,140,2013-02-06 19:55:00
2:15 PM,21.2,19.4,93,30.05,0.5,SSE,3.5,-,N/A,Snow,Snow,150,2013-02-06 20:15:00
2:35 PM,21.2,19.4,93,30.05,0.8,SE,4.6,-,N/A,Snow,Light Snow,140,2013-02-06 20:35:00
2:55 PM,21.2,19.4,93,30.04,1.0,SE,4.6,-,N/A,Snow,Light Snow,140,2013-02-06 20:55:00
3:15 PM,23.0,19.4,86,30.04,1.0,SE,5.8,-,N/A,Snow,Light Snow,130,2013-02-06 21:15:00
3:35 PM,23.0,19.4,86,30.02,0.8,ESE,6.9,-,N/A,Snow,Light Snow,110,2013-02-06 21:35:00
3:55 PM,23.0,19.4,86,30.02,1.0,SE,4.6,-,N/A,Snow,Light Snow,130,2013-02-06 21:55:00
4:15 PM,23.0,21.2,93,30.01,1.2,ESE,8.1,-,N/A,Snow,Light Snow,120,2013-02-06 22:15:00
4:35 PM,21.2,19.4,93,30.01,2.0,SE,6.9,-,N/A,Snow,Light Snow,130,2013-02-06 22:35:00
4:55 PM,21.2,19.4,93,30.01,1.8,SE,9.2,-,N/A,Snow,Light Snow,140,2013-02-06 22:55:00
5:15 PM,21.2,19.4,93,30.00,4.0,ESE,8.1,-,N/A,Snow,Light Snow,120,2013-02-06 23:15:00
5:35 PM,21.2,19.4,93,30.00,7.0,SE,10.4,-,N/A,Snow,Light Snow,130,2013-02-06 23:35:00
5:55 PM,21.2,19.4,93,29.99,10.0,SE,11.5,-,N/A,,Overcast,140,2013-02-06 23:55:00
6:15 PM,23.0,19.4,86,30.00,10.0,SE,6.9,-,N/A,,Overcast,130,2013-02-07 00:15:00
6:35 PM,23.0,19.4,86,30.00,10.0,SE,8.1,-,N/A,,Overcast,130,2013-02-07 00:35:00
6:55 PM,23.0,19.4,86,30.01,10.0,SSE,4.6,-,N/A,,Overcast,160,2013-02-07 00:55:00
7:15 PM,23.0,19.4,86,30.03,10.0,Calm,Calm,-,N/A,,Overcast,0,2013-02-07 01:15:00
7:35 PM,23.0,19.4,86,30.03,10.0,Calm,Calm,-,N/A,,Overcast,0,2013-02-07 01:35:00
7:55 PM,23.0,19.4,86,30.02,7.0,SE,4.6,-,N/A,,Overcast,130,2013-02-07 01:55:00
8:15 PM,23.0,19.4,86,30.02,7.0,SE,4.6,-,N/A,,Overcast,130,2013-02-07 02:15:00
8:35 PM,23.0,21.2,93,30.01,7.0,SE,5.8,-,N/A,,Overcast,130,2013-02-07 02:35:00
8:55 PM,23.0,21.2,93,30.02,7.0,SE,4.6,-,N/A,,Overcast,130,2013-02-07 02:55:00
9:15 PM,23.0,21.2,93,30.02,7.0,SE,4.6,-,N/A,,Overcast,130,2013-02-07 03:15:00
9:35 PM,23.0,21.2,93,30.03,7.0,ESE,3.5,-,N/A,,Overcast,110,2013-02-07 03:35:00
9:55 PM,23.0,21.2,93,30.03,7.0,ESE,3.5,-,N/A,,Overcast,110,2013-02-07 03:55:00
10:15 PM,23.0,21.2,93,30.03,5.0,ESE,3.5,-,N/A,,Overcast,110,2013-02-07 04:15:00
10:35 PM,23.0,21.2,93,30.03,4.0,ESE,3.5,-,N/A,,Overcast,120,2013-02-07 04:35:00
10:55 PM,23.0,21.2,93,30.03,4.0,ESE,3.5,-,N/A,,Overcast,120,2013-02-07 04:55:00
11:15 PM,23.0,21.2,93,30.03,3.0,Calm,Calm,-,N/A,,Overcast,0,2013-02-07 05:15:00
11:35 PM,23.0,21.2,93,30.03,2.5,Calm,Calm,-,N/A,,Overcast,0,2013-02-07 05:35:00
11:55 PM,23.0,21.2,93,30.03,2.5,Calm,Calm,-,N/A,,Overcast,0,2013-02-07 05:55:00